Regional Weather Roundup
Issued by NWS

Home | Current Version | Previous Version | Text Only | Print | Product List | Glossary Off
Versions: 1 2 3 4 5 6 7 8 9 10 11 12 13 14 15 16 17 18 19 20 21 22 23 24 25 26 27 28 29 30 31 32 33 34 35 36 37 38 39 40 41 42 43 44 45 46 47 48 49 50

000
ASUS43 KTOP 252108
RWRKS

WEATHER ROUNDUP FOR KANSAS
NATIONAL WEATHER SERVICE GOODLAND KS
400 PM CDT WED APR 25 2018

NOTE:  "FAIR" INDICATES FEW OR NO CLOUDS BELOW 12,000 FEET WITH NO
SIGNIFICANT WEATHER AND/OR OBSTRUCTIONS TO VISIBILITY.

KSZ001>006-013>018-027>032-041>047-252200-
NORTHWEST KANSAS

CITY           SKY/WX    TMP DP  RH WIND       PRES   REMARKS
GOODLAND       SUNNY     58  32  37 N9        30.17F
HAYS           PTSUNNY   58  35  42 N14       30.16F
HILL CITY      MOSUNNY   59  37  44 N13G23    30.17F
RUSSELL        CLOUDY    53  39  59 N15       30.15F
$$

KSZ061>065-074>080-084>089-252200-
SOUTHWEST KANSAS

CITY           SKY/WX    TMP DP  RH WIND       PRES   REMARKS
DODGE CITY     CLOUDY    55  37  50 N20G29    30.17F
ELKHART        SUNNY     62  35  36 NW10G18   30.20F
GARDEN CITY    MOSUNNY   56  34  43 N16G26    30.18F
GREAT BEND     CLOUDY    53  40  61 N16       30.16F
LIBERAL        PTSUNNY   55  36  48 N10G21    30.20F
PRATT          CLOUDY    52  38  59 N17G24    30.16F
$$

KSZ066>073-081>083-090>101-252200-
SOUTHEAST KANSAS

CITY           SKY/WX    TMP DP  RH WIND       PRES   REMARKS
CHANUTE        LGT RAIN  52  51  97 N8        30.05F
COFFEYVILLE    LGT RAIN  52  51  97 NW12      30.06F
HUTCHINSON     CLOUDY    49  43  80 N17       30.14F
MEDICINE LODGE   N/A     52  40  63 N16G26    30.15F
NEWTON         CLOUDY    45  43  93 NW17      30.13F
PARSONS        LGT RAIN  53  52  96 NW9       30.06F
WICHITA INTL   CLOUDY    48  44  86 N20       30.12F
WICHITA JABRA  CLOUDY    47  45  93 NW17      30.12F
WICHITA MCCONL CLOUDY    46  46 100 N17       30.11
WINFIELD       CLOUDY    48  46  93 NW15      30.13S
$$

KSZ007>012-019>026-033>040-048>060-102>105-252200-
NORTHEAST KANSAS

CITY           SKY/WX    TMP DP  RH WIND       PRES   REMARKS
CONCORDIA      CLOUDY    49  41  74 N13       30.15F
EMPORIA        LGT RAIN  49  46  90 N12       30.09F
LAWRENCE       LGT RAIN  50  48  93 N5        30.10F
MANHATTAN      LGT RAIN  50  46  86 N9        30.13F
MARYSVILLE     LGT RAIN  46  41  81 NE13      30.14F
OLATHE IND     LGT RAIN  50  48  93 NE12      30.09F FOG
OLATHE EXE     RAIN      48  47  96 NE12      30.08F FOG
SALINA         CLOUDY    49  45  86 NW10      30.15F
TOPEKA BILLARD LGT RAIN  50  49  96 N12       30.10F
TOPEKA FORBES  LGT RAIN  50  48  93 N10       30.10F
$$



USA.gov is the U.S. government's official web portal to all federal, state and local government web resources and services.